• In Hungary
  • List of Countries
  • For 7 days
  • Water Temperature
  • Satellite Maps
  • Weather Map
  • News
  • Weather Widgets
  • user-avatar
    Login

    Hourly Weather Voldino

    Today, 15 July, Sunday

    Time Temperature Precipitation Wind Pressure Humidity
    00:00 +21°C° 0 mm 1 mps 746 mmHg 72%
    01:00 +20°C° 0 mm 1 mps 746 mmHg 74%
    02:00 +19°C° 0 mm 1 mps 746 mmHg 76%
    03:00 +18°C° 0 mm 1 mps 747 mmHg 78%
    04:00 +18°C° 0 mm 1 mps 747 mmHg 82%
    05:00 +20°C° 0 mm 1 mps 747 mmHg 77%
    06:00 +21°C° 0 mm 1 mps 747 mmHg 71%
    07:00 +23°C° 0 mm 1 mps 747 mmHg 66%
    08:00 +24°C° 0 mm 2 mps 747 mmHg 59%
    09:00 +26°C° 0 mm 2 mps 747 mmHg 52%
    10:00 +28°C° 0 mm 3 mps 747 mmHg 45%
    11:00 +29°C° 0 mm 3 mps 747 mmHg 42%
    12:00 +30°C° 0 mm 3 mps 746 mmHg 40%
    13:00 +30°C° 0 mm 3 mps 746 mmHg 37%
    14:00 +31°C° 0 mm 3 mps 746 mmHg 37%
    15:00 +31°C° 0 mm 3 mps 746 mmHg 37%
    16:00 +30°C° 0 mm 2 mps 746 mmHg 42%
    17:00 +29°C° 0 mm 2 mps 746 mmHg 46%
    18:00 +29°C° 0 mm 2 mps 746 mmHg 50%
    19:00 +28°C° 0 mm 1 mps 746 mmHg 53%
    20:00 +26°C° 0 mm 1 mps 746 mmHg 60%
    21:00 +24°C° 0 mm 1 mps 746 mmHg 66%
    22:00 +22°C° 0 mm 1 mps 746 mmHg 72%
    23:00 +21°C° 0 mm 1 mps 746 mmHg 75%

    Tomorrow, 16 July, Monday

    Time Temperature Precipitation Wind Pressure Humidity
    00:00 +21°C° 0 mm 1 mps 746 mmHg 78%
    01:00 +20°C° 0 mm 1 mps 746 mmHg 81%
    02:00 +19°C° 0.1 mm 2 mps 746 mmHg 82%
    03:00 +18°C° 0.1 mm 2 mps 746 mmHg 84%
    04:00 +18°C° 0.1 mm 2 mps 746 mmHg 86%
    05:00 +19°C° 0.5 mm 2 mps 746 mmHg 82%
    06:00 +20°C° 0.5 mm 2 mps 746 mmHg 78%
    07:00 +23°C° 0.5 mm 2 mps 746 mmHg 74%
    08:00 +24°C° 0.3 mm 2 mps 746 mmHg 69%
    09:00 +26°C° 0.3 mm 2 mps 746 mmHg 65%
    10:00 +27°C° 0.3 mm 2 mps 746 mmHg 60%
    11:00 +28°C° 0.4 mm 2 mps 746 mmHg 59%
    12:00 +28°C° 0.4 mm 2 mps 746 mmHg 58%
    13:00 +28°C° 0.4 mm 2 mps 746 mmHg 57%
    14:00 +28°C° 0.2 mm 2 mps 746 mmHg 56%
    15:00 +29°C° 0.2 mm 2 mps 746 mmHg 55%
    16:00 +29°C° 0.2 mm 2 mps 745 mmHg 54%
    17:00 +28°C° 0 mm 1 mps 745 mmHg 56%
    18:00 +28°C° 0 mm 1 mps 745 mmHg 57%
    19:00 +28°C° 0 mm 1 mps 745 mmHg 58%
    20:00 +24°C° 0.4 mm 0 mps 745 mmHg 66%
    21:00 +22°C° 0.4 mm 0 mps 745 mmHg 73%
    22:00 +20°C° 0.4 mm 0 mps 745 mmHg 81%
    23:00 +19°C° 1.4 mm 0 mps 745 mmHg 84%

    Day after tomorrow, 17 July, Tuesday

    Time Temperature Precipitation Wind Pressure Humidity
    00:00 +19°C° 1.4 mm 0 mps 745 mmHg 87%
    01:00 +18°C° 1.4 mm 0 mps 745 mmHg 90%
    02:00 +18°C° 1.2 mm 0 mps 746 mmHg 92%
    03:00 +19°C° 1.2 mm 1 mps 746 mmHg 94%
    04:00 +19°C° 1.2 mm 1 mps 746 mmHg 96%
    05:00 +20°C° 0.4 mm 1 mps 746 mmHg 94%
    06:00 +21°C° 0.4 mm 1 mps 746 mmHg 92%
    07:00 +22°C° 0.4 mm 1 mps 746 mmHg 90%
    08:00 +23°C° 0.8 mm 2 mps 746 mmHg 83%
    09:00 +24°C° 0.8 mm 2 mps 746 mmHg 75%
    10:00 +25°C° 0.8 mm 3 mps 746 mmHg 68%
    11:00 +26°C° 0.5 mm 3 mps 746 mmHg 61%
    12:00 +27°C° 0.5 mm 3 mps 746 mmHg 53%
    13:00 +28°C° 0.5 mm 3 mps 746 mmHg 46%
    14:00 +28°C° 0.3 mm 3 mps 746 mmHg 45%
    15:00 +28°C° 0.3 mm 3 mps 746 mmHg 44%
    16:00 +28°C° 0.3 mm 3 mps 746 mmHg 43%
    17:00 +27°C° 0 mm 2 mps 747 mmHg 47%
    18:00 +26°C° 0 mm 2 mps 747 mmHg 51%
    19:00 +26°C° 0 mm 1 mps 747 mmHg 55%
    20:00 +24°C° 0 mm 2 mps 747 mmHg 60%
    21:00 +21°C° 0 mm 2 mps 747 mmHg 65%
    22:00 +19°C° 0 mm 2 mps 747 mmHg 71%
    23:00 +18°C° 0 mm 2 mps 748 mmHg 72%

    18 July, Wednesday

    Time Temperature Precipitation Wind Pressure Humidity
    00:00 +18°C° 0 mm 2 mps 748 mmHg 72%
    01:00 +17°C° 0 mm 2 mps 748 mmHg 73%
    02:00 +16°C° 0 mm 2 mps 748 mmHg 76%
    03:00 +15°C° 0 mm 2 mps 748 mmHg 79%
    04:00 +15°C° 0 mm 2 mps 748 mmHg 82%
    05:00 +16°C° 0 mm 3 mps 748 mmHg 78%
    06:00 +17°C° 0 mm 3 mps 749 mmHg 75%
    07:00 +18°C° 0 mm 3 mps 749 mmHg 72%
    08:00 +20°C° 0 mm 3 mps 749 mmHg 67%
    09:00 +22°C° 0 mm 4 mps 749 mmHg 62%
    10:00 +25°C° 0 mm 4 mps 749 mmHg 57%
    11:00 +26°C° 0 mm 4 mps 748 mmHg 53%
    12:00 +27°C° 0 mm 4 mps 748 mmHg 49%
    13:00 +28°C° 0 mm 4 mps 748 mmHg 45%
    14:00 +28°C° 0.3 mm 4 mps 748 mmHg 47%
    15:00 +28°C° 0.3 mm 4 mps 748 mmHg 49%
    16:00 +28°C° 0.3 mm 3 mps 748 mmHg 51%
    17:00 +28°C° 0 mm 3 mps 748 mmHg 51%
    18:00 +27°C° 0 mm 3 mps 748 mmHg 50%
    19:00 +27°C° 0 mm 2 mps 748 mmHg 50%
    20:00 +25°C° 0 mm 3 mps 748 mmHg 54%
    21:00 +24°C° 0 mm 3 mps 748 mmHg 57%
    22:00 +21°C° 0 mm 3 mps 748 mmHg 61%
    23:00 +20°C° 0 mm 3 mps 749 mmHg 63%

    19 July, Thursday

    Time Temperature Precipitation Wind Pressure Humidity
    00:00 +20°C° 0 mm 3 mps 749 mmHg 65%
    01:00 +19°C° 0 mm 3 mps 749 mmHg 67%
    02:00 +18°C° 0 mm 3 mps 749 mmHg 71%
    03:00 +17°C° 0 mm 3 mps 749 mmHg 75%
    04:00 +17°C° 0 mm 2 mps 749 mmHg 79%
    05:00 +18°C° 0 mm 2 mps 749 mmHg 75%
    06:00 +19°C° 0 mm 2 mps 749 mmHg 71%
    07:00 +21°C° 0 mm 3 mps 750 mmHg 66%
    08:00 +24°C° 0 mm 3 mps 750 mmHg 59%
    09:00 +26°C° 0 mm 3 mps 750 mmHg 52%
    10:00 +28°C° 0 mm 3 mps 750 mmHg 45%
    11:00 +28°C° 0 mm 3 mps 750 mmHg 42%
    12:00 +29°C° 0 mm 3 mps 749 mmHg 39%
    13:00 +30°C° 0 mm 3 mps 749 mmHg 36%
    14:00 +30°C° 0 mm 3 mps 749 mmHg 35%
    15:00 +30°C° 0 mm 3 mps 749 mmHg 34%
    16:00 +31°C° 0 mm 3 mps 749 mmHg 33%
    17:00 +30°C° 0 mm 2 mps 749 mmHg 37%
    18:00 +29°C° 0 mm 2 mps 749 mmHg 41%
    19:00 +28°C° 0 mm 2 mps 749 mmHg 44%
    20:00 +26°C° 0 mm 2 mps 749 mmHg 51%
    21:00 +24°C° 0 mm 2 mps 749 mmHg 57%
    22:00 +20°C° 0 mm 2 mps 749 mmHg 63%
    23:00 +20°C° 0 mm 2 mps 749 mmHg 66%

    20 July, Friday

    Time Temperature Precipitation Wind Pressure Humidity
    00:00 +19°C° 0 mm 2 mps 749 mmHg 68%
    01:00 +18°C° 0 mm 2 mps 749 mmHg 71%
    02:00 +17°C° 0 mm 2 mps 750 mmHg 73%
    03:00 +17°C° 0 mm 2 mps 750 mmHg 76%
    04:00 +16°C° 0 mm 1 mps 750 mmHg 78%
    05:00 +19°C° 0 mm 1 mps 750 mmHg 73%
    06:00 +21°C° 0 mm 1 mps 750 mmHg 68%
    07:00 +23°C° 0 mm 1 mps 750 mmHg 63%
    08:00 +24°C° 0 mm 2 mps 750 mmHg 56%
    09:00 +26°C° 0 mm 2 mps 750 mmHg 50%
    10:00 +28°C° 0 mm 2 mps 750 mmHg 43%
    11:00 +29°C° 0 mm 2 mps 750 mmHg 40%
    12:00 +30°C° 0 mm 2 mps 750 mmHg 37%
    13:00 +30°C° 0 mm 2 mps 750 mmHg 34%
    14:00 +30°C° 0 mm 2 mps 749 mmHg 34%
    15:00 +30°C° 0 mm 2 mps 749 mmHg 34%
    16:00 +30°C° 0 mm 3 mps 749 mmHg 34%
    17:00 +30°C° 0 mm 2 mps 749 mmHg 38%
    18:00 +29°C° 0 mm 2 mps 749 mmHg 41%
    19:00 +28°C° 0 mm 2 mps 749 mmHg 45%
    20:00 +26°C° 0 mm 2 mps 749 mmHg 50%
    21:00 +24°C° 0 mm 2 mps 749 mmHg 56%
    22:00 +21°C° 0 mm 2 mps 749 mmHg 62%
    23:00 +20°C° 0 mm 2 mps 749 mmHg 64%
    Show more